Location: Feigenhofen
(48.4939°N, 10.7793°E)
Time: 16:35:18
(UTC+00:00)

Cosmos 1674 - Pass Details

Date: 26 May 2022
Orbit: 487 x 510 km, 82.5° (Epoch: 06 July)

Event Time Altitude Azimuth Distance (km) Brightness Sun altitude
Exits shadow 00:11:38 28° 262° (W) 959 3.8 -19.2°
Maximum altitude 00:12:24 31° 287° (WNW) 902 3.9 -19.2°
Drops below altitude 10° 00:15:48 10° 351° (N) 1,725 6.3 -19.1°
Sets 00:18:07 0° 2° (N) 2,619 7.8 -18.9°
